{"data":{"norad_id":62490,"intl_designator":"2025-003D","name":"STARLINK-32332","alt_names":[],"object_type":"PAYLOAD","status":"ACTIVE","operator":null,"country":"US","launch_date":"2025-01-06","launch_site_code":"AFETR","launch_vehicle":null,"mission":null,"orbit_class":"UNKNOWN","rcs_meters":null,"size_class":null,"mass_kg":null,"dimensions":null,"purposes":["comms"],"wikipedia_slug":null,"has_3d_model":false,"image_url":null,"decayed_at":null,"tle_current":{"epoch":"2026-09-21T06:47:24.578304Z","epoch_age_seconds":106928,"freshness":"FRESH","line1":"1 62490U 25003D   26264.28292336  .00009089  00000+0  33935-3 0  9997","line2":"2 62490  43.0009 264.4851 0001674 273.1780  86.8880 15.27586583 96569","mean_motion":15.27586583,"eccentricity":0.0001674,"inclination_deg":43.0009,"raan_deg":264.4851,"arg_perigee_deg":273.178,"mean_anomaly_deg":86.888,"bstar":0.00033935,"rev_number":9656,"period_min":94.266342479391,"perigee_km":481.8808249875,"apogee_km":484.17794349294,"semimajor_km":6861.1663842402,"source":"CELESTRAK","updated_at":"2026-09-22T09:00:49.616636Z"}}}